Find STARLINK-37563

NORAD ID: 799500908 Int'l Des: 2026-127Q Constellation: starlink operational

現在のビュー

3D地球を読み込み中...

STARLINK-37563について

説明を読み込み中...

次回通過

Passes for default location (London). Set your location on the main map for personalized predictions.

高度履歴

Loading altitude history...

軌道要素

1 99999C 2026127Q 26159.94215278 .00916290 00000-0 934900-4 0 1590
2 99999 53.1614 304.7395 0008896 291.7542 195.8638 16.09538694 11
Epoch: Jun 8, 2026 • Age: 3 hours